Regional Weather Roundup
Issued by NWS Mobile, AL

Home | Current Version | Previous Version | Text Only | Print | Product List | Glossary On
Versions: 1 2 3 4 5 6 7 8 9 10 11 12 13 14 15 16 17 18 19 20 21 22 23 24 25 26 27 28 29 30 31 32 33 34 35 36 37 38 39 40 41 42 43 44 45 46 47 48 49 50
000
ASUS44 KMOB 060016
RWRMOB
REGIONAL WEATHER ROUNDUP
NATIONAL WEATHER SERVICE MOBILE AL
700 PM CDT SUN JUL 05 2015

ALZ061>064-060100-
COASTAL ALABAMA


CITY           SKY/WX    TMP DP  RH WIND       PRES   REMARKS
MOBILE REG APT CLOUDY    69  68  96 W5        30.13F
6HR MIN TEMP:  68; 6HR MAX TEMP:  73; 6HR PCP:  0.46;

BROOKLEY FIELD LGT RAIN  70  68  93 S5        30.12F
6HR MIN TEMP:  70; 6HR MAX TEMP:  79;

GULF SHORES    CLOUDY    71  68  89 CALM      30.12F
6HR MIN TEMP:  71; 6HR MAX TEMP:  78; 6HR PCP:  0.07;


$$

ALZ051>060-060100-
INTERIOR SOUTHWEST AND SOUTH CENTRAL ALABAMA


CITY           SKY/WX    TMP DP  RH WIND       PRES   REMARKS
ANDALUSIA/OPP  CLOUDY    77  68  73 SW5       30.07F
6HR MIN TEMP:  75; 6HR MAX TEMP:  86; 6HR PCP:  0.02;

EVERGREEN      CLOUDY    71  69  93 SW5       30.10R
6HR MIN TEMP:  71; 6HR MAX TEMP:  79;

FLORALA        MOCLDY    74  67  78 SW5       30.10F
6HR MIN TEMP:  71; 6HR MAX TEMP:  81; 6HR PCP:  0.04;

GREENVILLE     CLOUDY    71  67  87 SW3       30.07F
6HR MIN TEMP:  71; 6HR MAX TEMP:  82; 6HR PCP:  0.03;


$$

FLZ001>006-060100-
WESTERN FLORIDA PANHANDLE


CITY           SKY/WX    TMP DP  RH WIND       PRES   REMARKS
CRESTVIEW      CLOUDY    77  72  84 S5        30.10F
6HR MIN TEMP:  71; 6HR MAX TEMP:  81;

DESTIN         MOCLDY    80  70  71 W3        30.11F
6HR MIN TEMP:  73; 6HR MAX TEMP:  81; 6HR PCP: TRACE;

DUKE FIELD     FAIR      78  71  78 S10       30.09F
6HR MIN TEMP:  71; 6HR MAX TEMP:  82;

MARY ESTHER    CLOUDY    78  69  72 S5        30.09F
6HR MIN TEMP:  74; 6HR MAX TEMP:  80; 6HR PCP: TRACE;

MILTON         CLOUDY    75  67  76 SW5       30.10F
6HR MIN TEMP:  75; 6HR MAX TEMP:  80; 6HR PCP: TRACE;

PENSACOLA      CLOUDY    74  67  78 SW8       30.11F
6HR MIN TEMP:  73; 6HR MAX TEMP:  77; 6HR PCP:  0.03;

NAS PENSACOLA  CLOUDY    74  68  81 SW7       30.11F
6HR MIN TEMP:  73; 6HR MAX TEMP:  79; 6HR PCP:  0.02;

VALPARAISO     MOCLDY    78  70  78 S3        30.10F
6HR MIN TEMP:  74; 6HR MAX TEMP:  81; 6HR PCP: TRACE;


$$

...MARINE OBSERVATIONS...

STATION/POSITION TIME  SKY/WX   TEMP    WIND        PRES    VSBY
                                AIR SEA DIR/SP/G
                 (UTC)          (F)     (DEG/KT/KT) (MB)    (MI)
PASCAGOULA       2300            71     100/  6/  7 1020.7F
GRAND BAY        2245            71     190/  3     1022.0
PETIT BOIS ISL   2300            77      30/ 12/ 16 1021.5F
E DAUPHIN ISLAND 0000            76     250/  3/  4 1019.5F
MIDDLE BAY LIGHT 2300            71     210/  8     1020.6S
USCG MOBILE BAY  2300            70 84  220/  4/  9 1019.5F
STATE DOCKS      2300            72 84              1019.8F
MEAHER PARK      0000            74     210/ 10     1019.3F
FORT MORGAN      2300            70     360/ 10/ 12 1020.8R
12 S ORANGE BCH  2350            77 84  300/ 12/ 16 1019.8F
WVE H/P(F/S)=  2/ 3

PENSACOLA BAY    2300            76 85  330/  5/  7 1020.1F
64 S DAUPHIN ISL 2350            83 85   10/ 14/ 17 1020.2R
WVE H/P(F/S)=  1/ 5

67 S FORT MORGAN 2330            82        CALM     1019.6S
115 SE PENSACOLA 2350            83 84  340/  8/ 10 1020.2R
WVE H/P(F/S)=  1/ 5

MID GULF/42001   2350            85 86  100/  8/ 10 1019.2R
WVE H/P(F/S)=  2/ 7

EAST GULF/42003  2350            85 87   40/ 14/ 16 1018.8F
WVE H/P(F/S)=  2/ 8


$$

...NEARBY LOCATIONS

CITY           SKY/WX    TMP DP  RH WIND       PRES   REMARKS
GULFPORT       HVY RAIN  71  69  93 W13G26    30.22R FOG
6HR MIN TEMP:  71; 6HR MAX TEMP:  82; 6HR PCP:  0.94;

BILOXI         LGT RAIN  73  71  95 W2        30.17R
6HR MIN TEMP:  70; 6HR MAX TEMP:  81; 6HR PCP:  0.99;

PASCAGOULA     LGT RAIN  69  68  96 CALM      30.14F
6HR MIN TEMP:  69; 6HR MAX TEMP:  79; 6HR PCP:  1.24;

HATTIESBURG    LGT RAIN  72  69  90 W8        30.18R
6HR MIN TEMP:  70; 6HR MAX TEMP:  82; 6HR PCP:  1.10;

LAUREL         CLOUDY    70  66  88 CALM      30.18R
6HR MIN TEMP:  68; 6HR MAX TEMP:  81; 6HR PCP:  0.43;

MERIDIAN       CLOUDY    71  68  90 SW7       30.12S
6HR MIN TEMP:  68; 6HR MAX TEMP:  72; 6HR PCP:  0.07;

MERIDIAN NAS   CLOUDY    72  69  90 SW3       30.11R
6HR MIN TEMP:  70; 6HR MAX TEMP:  73; 6HR PCP:  0.13;

MONTGOMERY     CLOUDY    78  71  79 CALM      30.05F
6HR MIN TEMP:  76; 6HR MAX TEMP:  84; 6HR PCP:  0.02;

MAXWELL AFB    CLOUDY    77  71  79 SW2       30.05F
6HR MIN TEMP:  74; 6HR MAX TEMP:  83; 6HR PCP:  0.03;

TROY           CLOUDY    76  70  82 S3        30.07F
6HR MIN TEMP:  75; 6HR MAX TEMP:  83;

FORT RUCKER    MOCLDY    78  69  73 SW6       30.08F
6HR MIN TEMP:  72; 6HR MAX TEMP:  80; 6HR PCP: TRACE;

DALEVILLE      PTCLDY    77  72  84 S7        30.09F
6HR MIN TEMP:  71; 6HR MAX TEMP:  79; 6HR PCP: TRACE;

DOTHAN         MOCLDY    77  71  82 S3        30.13F
6HR MIN TEMP:  72; 6HR MAX TEMP:  78; 6HR PCP:  0.01;


$$

...OTHER SURROUNDING LOCATIONS...

CITY           SKY/WX    TMP DP  RH WIND       PRES   REMARKS
BIRMINGHAM     PTSUNNY   81  70  69 W6        30.08S
6HR MIN TEMP:  79; 6HR MAX TEMP:  84;

TUSCALOOSA     CLOUDY    78  71  79 SW10      30.08R
6HR MIN TEMP:  78; 6HR MAX TEMP:  81; 6HR PCP: TRACE;

COLUMBUS GA    PTCLDY    79  69  71 SW7       30.08S
6HR MIN TEMP:  77; 6HR MAX TEMP:  83;

PANAMA CITY    NOT AVBL
TALLAHASSEE    MOCLDY    78  70  76 CALM      30.14R
6HR MIN TEMP:  72; 6HR MAX TEMP:  79; 6HR PCP:  0.29;

BATON ROUGE    TSTM      69  67  93 VRB6G18   30.18R VSB 1/2
6HR MIN TEMP:  70; 6HR MAX TEMP:  91; 6HR PCP:  1.40;

NEW ORLEANS    CLOUDY    74  71  91 NE13G24   30.18R THUNDER
6HR MIN TEMP:  72; 6HR MAX TEMP:  93; 6HR PCP:  1.17;

SLIDELL        LGT RAIN  70  70 100 E7        30.19F
6HR MIN TEMP:  70; 6HR MAX TEMP:  92; 6HR PCP:  0.46;

JACKSON        CLOUDY    75  69  81 S14       30.13R
6HR MIN TEMP:  73; 6HR MAX TEMP:  79; 6HR PCP:  0.01;

MCCOMB         RAIN      70  68  93 W8        30.16F FOG
6HR MIN TEMP:  69; 6HR MAX TEMP:  87; 6HR PCP:  1.47;


$$

...SURROUNDING MARINE OBSERVATIONS...

STATION/POSITION TIME  SKY/WX   TEMP    WIND        PRES    VSBY
                                AIR SEA DIR/SP/G
                 (UTC)          (F)     (DEG/KT/KT) (MB)    (MI)
WAVELAND         2300            76 84  120/  9/ 10 1021.2R
PASCAGOULA RGN A 2300            71      90/  4/  5 1020.7F
PASCAGOULA PORT  2300               83                N/A
GRAND ISLE       2300            87 87  200/  5/  8 1019.5R
SOUTHWEST PASS   0000            86        CALM     1020.5R
PILOT STATION E  2300            92 83  150/  2/  3 1019.7R
SHELL BEACH      2300            76 86   30/ 29/ 34 1019.1R
PANAMA CITY      2300            79 83  250/ 10/ 12 1019.6R
APALACHICOLA     2300            80 86   90/  3/  4 1019.7S
TYNDALL TOWER C  0000            80      CALM  /  1 1020.5R
S APLCHCLA/42036 2350            83 85  130/  8/ 10 1018.9F
WVE H/P(F/S)=  3/ 5


$$




USA.gov is the U.S. government's official web portal to all federal, state and local government web resources and services.